Volver al catálogo

STARLINK-34159

ActivoComunicacionesVLEO
NORAD 63952·PAYLOAD·🇺🇸 United States

Lanzado May 13, 2025 desde Cape Canaveral Space Force Station

Loading…

Próximos Pases (próximas 24 horas)

TLE

ActualizadoSource: CelesTrak SupGP

Época: Sep 15, 2026, 03:22 UTC

1 63952C 25099A   26258.14076389 -.00009867  00000+0 -35744-3 0  2586
2 63952  43.0025 186.5995 0001273 270.4150 211.5411 15.27579389    18

Sigue STARLINK-34159 en tiempo real con AllMySat

Download on the App Store